Simultaneous Nadir Overpasses (SNOs) Predictions

Prediction of SNOs between GOES-14 and NPP Satellite Orbit:

Table of predicted SNOs for the next 14.0 days since TLE Epoch: 8/5/2023
Index Date Time (GOES-14) GOES-14 Lat,Lon NPP Lat,Lon Distance(km) Time Diff (sec)
1 08/05/2023 20:25:21 0.36,-108.55 1.27,-104.60 449.95 80
2 08/07/2023 08:44:29 -0.40,-108.65 -0.09,-109.88 140.32 80
3 08/08/2023 08:28:24 -0.38,-108.65 -1.13,-105.35 376.30 80
4 08/09/2023 20:47:41 0.42,-108.55 -0.05,-110.66 240.46 80
5 08/10/2023 20:31:35 0.41,-108.55 0.93,-106.12 276.23 80
6 08/12/2023 08:50:43 -0.44,-108.66 0.17,-111.41 313.73 80
7 08/13/2023 08:34:38 -0.43,-108.66 -0.81,-106.87 202.72 80
8 08/14/2023 20:53:54 0.46,-108.55 -0.35,-112.19 414.40 80
9 08/15/2023 20:37:49 0.45,-108.55 0.64,-107.65 102.43 80
10 08/17/2023 08:56:57 -0.47,-108.66 0.46,-112.94 486.61 80
11 08/18/2023 08:40:52 -0.46,-108.67 -0.53,-108.40 30.21 80
